Wind_Speed
24 27 33 34 31 29 27 31 34 33 33 36 32 31 32 32 35 29 27 29 28 26 26 27 27 27 27 29 31 32 34 35 34 34 32 28 27 28 29 29 29 30 31 32
20 22 25 22 21 24 27 28 30 32 34 32 31 31 32 30 30 29 25 25 26 26 26 26 27 29 31 32 32 32 33 34 36 39 40 39 38 37 37 36 36 36 38 38
18 20 20 21 19 17 17 22 25 25 26 26 27 30 31 30 29 29 24 24 26 27 29 31 31 32 33 34 34 35 36 36 37 39 41 43 44 44 44 44 44 44 44 44
21 19 18 15 14 13 9 12 15 12 10 13 17 19 23 24 27 25 22 28 31 30 29 29 29 30 31 32 33 35 36 37 38 40 42 44 45 46 47 48 48 48 48 47
19 16 15 13 10 8 8 7 8 9 9 11 14 13 15 17 22 22 21 28 34 26 25 28 28 28 29 29 29 30 32 34 35 36 38 40 42 43 44 45 46 46 47 47
21 16 13 11 6 4 4 5 5 6 10 10 11 12 13 14 15 16 15 16 18 20 23 26 26 25 26 27 28 29 29 31 32 32 34 36 37 38 40 40 38 36 35 38
22 18 14 11 6 2 2 5 6 7 7 8 11 13 14 15 16 18 20 22 23 23 23 22 21 21 23 25 27 27 27 28 28 28 28 28 28 28 30 31 29 27 28 29
21 19 16 12 7 2 1 3 7 8 7 6 7 10 13 16 18 20 21 22 22 21 21 20 20 21 22 23 23 23 21 21 20 19 17 16 17 18 19 21 23 21 20 21
16 17 18 14 9 5 3 1 3 4 6 7 9 10 12 13 14 15 18 20 20 22 22 21 20 19 16 16 16 16 15 15 15 15 17 18 17 17 17 19 20 20 19 19
11 11 13 15 14 11 7 4 2 2 2 3 6 7 9 10 11 12 14 17 20 22 21 19 17 15 13 12 12 11 11 13 14 15 19 20 19 19 20 21 22 24 25 25
10 9 8 9 10 11 9 7 5 4 4 2 2 3 5 6 8 10 11 13 15 16 16 17 18 19 19 17 17 15 14 13 14 17 21 20 18 22 25 23 24 23 26 28
13 11 9 7 7 6 5 5 6 6 6 5 4 4 4 5 8 9 11 11 11 11 10 12 15 19 20 21 21 21 19 19 18 18 20 18 19 23 26 27 27 26 29 28
19 17 14 12 10 8 6 5 4 2 2 1 1 1 2 3 5 7 8 8 9 9 8 7 8 10 13 15 16 17 17 17 18 19 19 18 19 21 22 24 26 29 34 37
23 22 20 18 15 13 12 10 9 8 7 7 6 6 6 6 5 6 7 7 7 6 5 4 4 5 6 9 11 13 15 16 18 20 20 21 22 23 24 25 27 28 30 33
25 24 24 24 22 19 17 15 14 14 13 12 11 11 11 12 11 11 11 10 9 8 6 5 5 6 7 9 10 11 13 14 16 17 19 21 22 23 24 25 26 27 28 30
27 25 26 27 27 25 23 21 19 17 17 15 15 16 16 16 16 15 14 13 12 11 11 9 9 9 10 11 12 13 13 14 16 19 21 23 25 26 26 26 26 26 26 29
24 26 30 32 31 29 27 26 23 21 20 20 19 18 18 17 16 16 15 15 14 14 14 12 12 11 12 13 13 14 15 17 19 21 23 25 26 26 26 26 27 27 29 31
23 24 27 30 33 35 32 29 27 24 22 23 23 22 21 20 19 18 17 17 17 16 15 14 14 13 13 15 16 17 18 19 21 22 22 22 22 21 21 22 24 28 33 37
26 25 27 28 31 32 34 33 31 28 26 24 23 23 23 23 22 22 22 20 20 19 19 16 16 16 17 18 18 18 19 21 21 20 20 20 20 18 20 23 28 34 39 42
29 27 28 29 32 30 28 34 35 32 30 28 25 24 23 23 23 22 23 22 23 23 22 20 18 18 19 21 21 20 21 20 19 21 20 20 19 21 25 29 33 40 45 46
29 27 28 28 29 28 28 32 36 35 32 32 28 25 24 23 22 21 20 21 23 23 23 21 20 20 20 21 21 20 20 19 18 20 20 20 20 24 28 32 38 44 44 45
31 29 28 28 26 26 27 29 30 30 31 31 29 26 25 23 23 21 20 20 21 21 20 20 20 20 20 20 20 21 21 20 21 22 22 22 23 25 29 36 41 42 42 43
34 32 30 28 27 26 24 23 23 23 24 25 28 28 27 25 23 21 20 20 20 19 19 19 20 20 20 20 19 20 21 23 24 25 25 25 26 28 32 38 40 41 41 41
35 34 33 30 29 28 26 25 24 24 24 24 25 28 28 26 24 21 21 21 20 19 19 19 19 19 19 19 20 21 22 22 24 26 29 30 30 31 35 39 39 39 39 38
36 36 35 34 33 32 30 29 27 25 25 26 24 25 26 25 23 23 24 25 23 21 20 19 19 20 20 18 19 21 20 20 23 27 30 32 33 36 39 38 38 38 37 36
36 36 34 36 37 36 34 32 30 29 27 27 26 26 28 28 26 25 26 24 23 22 21 20 21 21 19 18 18 20 19 22 25 29 29 30 35 36 35 35 36 35 33 31
35 36 35 34 35 36 36 36 35 34 33 30 27 28 30 31 29 26 24 22 21 21 20 19 18 18 20 21 20 19 20 22 24 29 30 30 31 31 32 33 34 33 31 29
Wind_Direction
284 280 278 280 274 255 249 253 258 255 252 252 260 259 258 254 255 254 253 248 248 248 247 248 251 254 260 264 263 262 261 257 257 260 263 266 271 268 267 267 266 264 264 266
301 292 287 285 286 279 273 261 257 255 253 248 253 255 255 257 253 238 240 240 241 244 250 256 258 261 267 270 269 268 266 263 259 258 261 265 268 269 267 267 268 267 268 268
317 301 298 297 289 279 259 248 252 252 251 252 255 256 254 257 261 250 244 249 253 254 259 262 261 261 263 266 267 268 268 267 263 261 262 263 264 265 265 264 261 261 263 265
329 322 312 307 316 316 304 246 242 248 257 263 264 260 257 256 260 266 264 263 262 261 262 263 265 265 265 268 268 267 266 266 266 265 264 264 265 265 265 264 262 264 264 262
338 327 319 310 306 308 295 279 246 250 269 270 254 245 249 255 262 268 268 264 254 255 263 267 267 268 270 271 272 271 270 268 268 268 269 268 267 267 266 266 266 266 265 265
353 339 329 320 307 306 290 275 245 241 255 260 247 240 247 261 266 268 277 276 272 269 266 265 266 268 270 272 272 272 272 270 269 270 270 269 268 266 266 266 266 267 268 269
6 357 347 343 321 294 268 256 223 217 225 236 244 253 261 265 266 270 272 273 270 263 259 260 264 273 282 284 281 277 270 266 265 266 267 266 265 264 265 263 258 257 261 263
14 12 5 5 360 339 295 236 223 224 228 250 272 275 273 270 271 273 275 275 268 261 259 262 271 280 288 290 286 279 273 269 266 266 262 262 264 261 259 259 258 260 262 262
10 19 23 20 20 26 31 97 199 224 233 251 270 276 280 282 281 275 272 270 265 265 268 272 278 283 285 290 289 280 271 268 262 257 258 260 263 261 262 268 269 270 272 268
347 3 23 29 33 37 48 69 103 145 203 259 287 299 303 304 300 293 285 279 277 278 278 274 267 261 267 280 291 293 287 277 268 267 270 263 265 268 272 275 272 276 276 273
312 328 350 15 30 43 58 68 73 76 76 59 11 337 333 334 333 327 320 311 301 293 283 270 261 260 266 275 280 284 289 289 278 273 279 288 280 271 268 261 274 283 280 276
290 296 306 321 336 359 34 70 93 97 94 87 81 70 53 42 32 22 14 2 348 330 308 284 271 269 270 271 273 276 278 281 284 283 284 284 273 265 265 268 267 259 259 255
280 279 279 281 288 296 298 299 300 299 323 348 299 299 333 3 14 19 19 14 13 10 1 337 301 282 275 273 275 279 280 281 283 285 286 285 281 279 275 271 264 260 263 266
280 281 279 276 272 273 277 277 273 271 278 285 279 282 295 304 319 340 346 345 347 353 1 357 334 305 290 281 280 282 284 285 286 286 285 283 281 281 281 279 275 273 271 271
272 275 277 277 274 270 268 270 271 271 273 276 277 278 282 288 292 300 310 314 314 315 318 319 311 300 292 283 281 280 282 286 289 291 290 289 289 288 286 285 286 287 288 288
269 268 269 271 272 271 269 267 268 270 273 273 272 272 275 279 283 287 293 298 299 299 301 305 306 303 296 287 286 289 292 295 295 295 294 293 293 293 292 291 292 295 300 305
276 263 261 263 263 264 266 266 265 265 269 271 269 270 272 274 277 282 287 291 294 293 292 292 292 292 289 285 285 288 294 297 299 302 301 297 294 292 291 292 295 297 300 306
291 284 274 272 271 260 256 261 264 264 264 266 268 269 270 274 277 280 282 285 287 289 289 287 285 282 282 283 284 286 291 296 302 308 307 302 297 294 297 305 311 314 315 315
294 289 282 278 280 281 263 255 259 262 262 264 266 266 268 273 276 278 279 280 282 285 287 288 287 287 285 284 284 287 291 296 303 310 313 313 310 311 315 318 321 322 321 318
292 289 286 284 280 279 272 261 261 260 260 260 260 262 265 268 274 278 281 281 281 283 287 291 290 289 290 290 289 288 289 294 304 313 314 314 316 320 322 322 320 317 318 316
285 283 280 281 282 281 276 272 271 269 264 263 259 254 255 262 270 277 282 282 282 284 286 289 290 292 294 295 293 289 288 292 303 313 315 315 319 322 323 324 319 316 314 313
277 276 275 276 277 279 277 276 279 281 276 271 267 260 254 256 265 272 276 278 282 286 287 288 289 291 294 296 294 288 290 295 304 313 316 317 318 321 315 314 314 313 313 317
276 274 271 272 276 280 278 272 271 280 283 281 276 271 261 253 257 266 270 272 278 283 286 289 292 295 298 300 294 288 291 299 305 312 317 319 321 320 313 312 313 315 318 322
279 275 271 270 274 278 279 270 264 271 277 276 276 277 272 264 260 263 268 271 276 282 286 290 294 298 299 298 292 292 297 304 311 317 318 319 319 315 311 312 314 318 321 323
274 272 271 269 269 271 272 269 258 256 266 268 267 267 266 263 262 264 268 270 272 278 285 290 293 294 294 293 294 297 298 306 316 320 317 314 312 308 308 310 315 320 321 322
270 266 266 267 267 268 267 265 255 245 248 256 256 257 260 262 262 264 266 267 268 271 278 289 293 292 289 292 300 303 304 309 316 315 316 311 305 305 307 314 320 321 321 320
270 264 262 263 264 265 265 266 262 250 242 240 245 251 255 258 259 257 258 261 267 273 275 283 290 287 289 294 300 301 307 308 299 301 314 316 310 309 313 319 323 323 322 322
Height
5748 5743 5738 5734 5732 5733 5734 5731 5734 5738 5740 5740 5743 5744 5745 5748 5749 5750 5750 5752 5754 5755 5757 5759 5760 5761 5762 5763 5764 5765 5766 5767 5767 5768 5768 5769 5769 5769 5769 5769 5769 5769 5769 5769
5740 5736 5731 5728 5726 5724 5723 5722 5725 5728 5730 5732 5733 5735 5738 5741 5742 5744 5744 5745 5747 5749 5752 5753 5755 5756 5756 5755 5755 5755 5756 5757 5758 5759 5760 5761 5761 5761 5761 5761 5761 5761 5760 5760
5734 5728 5724 5721 5719 5716 5714 5714 5719 5721 5723 5724 5725 5728 5731 5733 5735 5737 5738 5741 5741 5743 5744 5745 5746 5746 5747 5747 5747 5746 5746 5746 5747 5748 5748 5749 5749 5750 5751 5751 5751 5751 5750 5750
5728 5724 5720 5719 5714 5711 5710 5710 5713 5715 5716 5717 5719 5722 5725 5727 5727 5728 5731 5732 5733 5735 5736 5736 5737 5737 5737 5737 5738 5737 5737 5736 5736 5736 5736 5736 5737 5737 5738 5738 5738 5738 5738 5738
5726 5721 5718 5714 5711 5709 5709 5710 5711 5712 5713 5714 5716 5718 5721 5722 5722 5723 5724 5724 5725 5726 5726 5727 5728 5728 5728 5727 5727 5728 5727 5727 5727 5726 5726 5726 5726 5726 5726 5726 5726 5725 5726 5726
5724 5719 5715 5713 5709 5707 5709 5709 5709 5710 5712 5713 5713 5715 5717 5718 5718 5718 5718 5717 5717 5718 5718 5719 5719 5719 5720 5719 5718 5718 5718 5718 5717 5717 5717 5716 5716 5716 5715 5716 5716 5716 5716 5715
5725 5719 5715 5711 5708 5707 5707 5708 5708 5708 5710 5710 5710 5711 5712 5712 5712 5712 5712 5711 5711 5711 5712 5713 5713 5712 5712 5710 5709 5709 5709 5708 5707 5707 5707 5706 5706 5706 5706 5706 5707 5708 5708 5707
5727 5721 5718 5711 5708 5707 5707 5705 5706 5706 5707 5707 5707 5707 5706 5706 5706 5705 5705 5705 5704 5705 5706 5706 5706 5706 5704 5702 5700 5700 5700 5699 5699 5698 5699 5699 5699 5699 5699 5699 5700 5700 5700 5700
5730 5726 5719 5713 5709 5707 5705 5704 5704 5704 5704 5704 5704 5703 5702 5701 5701 5700 5699 5698 5698 5699 5699 5699 5699 5698 5697 5696 5695 5693 5693 5693 5693 5693 5693 5694 5694 5694 5693 5693 5693 5693 5693 5693
5729 5726 5721 5716 5712 5708 5705 5704 5703 5702 5702 5701 5700 5700 5698 5697 5696 5695 5694 5693 5692 5691 5691 5691 5691 5692 5691 5691 5691 5690 5689 5688 5687 5687 5688 5688 5687 5687 5688 5687 5687 5686 5687 5687
5727 5725 5721 5718 5714 5711 5708 5706 5704 5703 5702 5701 5700 5699 5698 5696 5694 5692 5690 5688 5686 5684 5684 5685 5685 5685 5685 5686 5686 5686 5685 5684 5683 5682 5682 5683 5683 5683 5682 5681 5681 5680 5679 5679
5724 5722 5720 5717 5714 5712 5709 5707 5705 5703 5702 5700 5699 5698 5697 5696 5694 5691 5688 5686 5683 5681 5680 5680 5680 5679 5680 5681 5680 5680 5680 5679 5678 5677 5676 5676 5676 5676 5675 5675 5674 5674 5673 5672
5718 5717 5716 5714 5712 5710 5708 5706 5704 5702 5701 5699 5698 5697 5696 5694 5693 5691 5688 5686 5684 5681 5679 5677 5677 5676 5676 5676 5675 5674 5674 5674 5673 5671 5670 5670 5669 5668 5667 5667 5666 5665 5664 5662
5711 5711 5710 5709 5708 5706 5704 5703 5702 5700 5699 5697 5696 5694 5693 5692 5691 5690 5688 5686 5683 5681 5678 5677 5675 5674 5673 5671 5671 5670 5669 5668 5667 5666 5664 5663 5662 5660 5659 5658 5656 5655 5654 5652
5703 5703 5703 5703 5702 5701 5699 5698 5697 5697 5696 5694 5693 5691 5689 5688 5687 5686 5685 5683 5681 5679 5677 5675 5673 5672 5670 5668 5667 5666 5664 5663 5662 5660 5658 5656 5654 5652 5650 5648 5646 5644 5642 5641
5695 5695 5695 5694 5694 5694 5693 5691 5691 5691 5690 5690 5689 5687 5685 5684 5683 5681 5680 5678 5677 5675 5673 5671 5669 5667 5666 5664 5663 5661 5659 5657 5656 5654 5651 5649 5647 5644 5642 5640 5637 5635 5633 5631
5687 5685 5684 5684 5685 5685 5685 5684 5684 5684 5684 5683 5683 5682 5681 5680 5678 5676 5674 5673 5671 5670 5669 5667 5666 5664 5662 5660 5659 5657 5654 5652 5650 5647 5645 5642 5640 5637 5635 5632 5630 5628 5626 5625
5679 5677 5675 5674 5673 5674 5675 5675 5675 5675 5675 5675 5675 5675 5675 5673 5672 5670 5669 5667 5666 5665 5663 5661 5660 5659 5657 5655 5654 5652 5649 5647 5644 5642 5639 5636 5633 5630 5628 5626 5624 5621 5617 5613
5671 5668 5667 5666 5664 5663 5664 5664 5665 5665 5665 5666 5667 5667 5667 5666 5665 5663 5662 5661 5659 5659 5657 5656 5654 5652 5650 5649 5647 5646 5643 5640 5638 5635 5632 5629 5625 5623 5621 5619 5616 5611 5607 5601
5661 5659 5657 5656 5655 5653 5653 5654 5654 5654 5655 5655 5656 5657 5658 5658 5657 5656 5654 5653 5652 5651 5651 5650 5649 5647 5645 5643 5641 5639 5637 5634 5632 5629 5625 5622 5619 5617 5614 5610 5606 5602 5595 5589
5651 5649 5647 5646 5645 5644 5643 5644 5644 5645 5645 5645 5646 5647 5648 5649 5649 5649 5648 5646 5644 5644 5644 5644 5643 5641 5638 5636 5634 5633 5630 5628 5625 5623 5619 5615 5612 5610 5606 5602 5598 5592 5586 5579
5641 5639 5637 5635 5634 5635 5634 5634 5635 5636 5636 5636 5637 5637 5638 5639 5640 5641 5641 5640 5637 5637 5637 5636 5635 5634 5631 5628 5627 5626 5624 5622 5619 5617 5613 5609 5606 5602 5599 5595 5589 5583 5576 5569
5630 5628 5626 5624 5623 5624 5624 5625 5626 5627 5627 5627 5628 5628 5629 5629 5630 5632 5633 5631 5631 5630 5630 5629 5628 5627 5624 5622 5620 5619 5618 5616 5613 5610 5607 5603 5599 5595 5591 5586 5580 5573 5566 5559
5619 5617 5616 5614 5613 5613 5614 5616 5616 5617 5618 5618 5619 5619 5620 5621 5622 5623 5624 5623 5623 5623 5623 5622 5621 5619 5618 5616 5614 5613 5611 5610 5607 5603 5599 5595 5591 5586 5582 5577 5571 5564 5557 5551
5606 5606 5605 5604 5603 5603 5604 5606 5606 5608 5609 5609 5610 5610 5611 5613 5614 5615 5615 5616 5616 5615 5615 5614 5613 5612 5611 5610 5608 5606 5604 5603 5600 5596 5593 5588 5584 5579 5574 5568 5562 5556 5550 5544
5592 5593 5593 5592 5591 5591 5592 5594 5596 5597 5599 5601 5601 5601 5602 5604 5606 5607 5607 5607 5608 5608 5607 5606 5605 5605 5604 5603 5601 5599 5597 5595 5592 5590 5587 5583 5578 5572 5566 5560 5554 5548 5543 5538
5578 5579 5580 5580 5579 5579 5580 5580 5582 5585 5587 5589 5591 5592 5593 5595 5597 5598 5599 5599 5599 5599 5600 5599 5599 5598 5597 5596 5594 5592 5590 5587 5586 5583 5580 5575 5570 5564 5559 5553 5547 5541 5536 5531